contact:dominique.lefevre@mio.osupytheas.fr, maurice.libes@osupytheas.fr, didier.mallarino@osupytheas.fr
Project:EMSO http://www.emso-fr.org/EMSO-France
Depth: 2436.0 m
Title:EMSO Ligure Ouest : Data MII capteur AQUADOPP
Date,Latitude,Longitude,X_East,Y_North,Z_Up,Amplitude_X,Amplitude_Y,Amplitude_Z,Batterie,SoundSpeed,Heading,Pitch,Roll,Pressure,TIS,Speed,Direction
, degrees North, degrees East, m.s-1, m.s-1,m.s-1, 1, 1, 1, Volt, m.s-1, degree, degree, degree, dbar, degree_C, m.s-1, degree
2023-08-17T00:04:03,42.805,6.029,-0.017,-0.011,-0.037,102.0,105.0,103.0,13.4,1505.2,349.5,-0.8,1.8,2471.467,13.28,0.02,237.1
2023-08-17T00:07:03,42.805,6.029,-0.019,-0.023,-0.045,104.0,103.0,101.0,13.3,1505.2,328.8,-0.8,1.8,2471.5,13.29,0.029,219.6
2023-08-17T00:10:03,42.805,6.029,-0.014,-0.023,-0.015,103.0,103.0,102.0,13.3,1505.2,344.3,-0.8,1.8,2471.445,13.29,0.026,211.3
2023-08-17T00:13:03,42.805,6.029,0.001,-0.016,-0.013,103.0,103.0,101.0,13.4,1505.2,349.5,-0.8,1.8,2471.467,13.29,0.016,176.4
2023-08-17T00:16:03,42.805,6.029,-0.001,-0.007,-0.033,102.0,103.0,102.0,13.3,1505.2,348.6,-0.8,1.8,2471.467,13.29,0.007,188.1
2023-08-17T00:19:03,42.805,6.029,0.001,-0.03,-0.036,104.0,104.0,100.0,13.3,1505.2,325.8,-0.8,1.8,2471.46,13.29,0.03,178.1
2023-08-17T00:22:03,42.805,6.029,-0.018,-0.001,-0.008,102.0,104.0,100.0,13.4,1505.2,336.0,-0.7,1.8,2471.441,13.29,0.018,266.8
2023-08-17T00:25:03,42.805,6.029,-0.006,-0.041,-0.038,104.0,102.0,101.0,13.4,1505.2,328.8,-0.8,1.8,2471.425,13.29,0.041,188.3
2023-08-17T00:28:03,42.805,6.029,-0.019,-0.008,-0.026,103.0,102.0,102.0,13.4,1505.2,336.1,-0.8,1.8,2471.423,13.29,0.02,247.2
2023-08-17T00:31:03,42.805,6.029,-0.015,-0.015,-0.037,102.0,103.0,102.0,13.4,1505.2,350.5,-0.8,1.8,2471.42,13.29,0.021,225.0
2023-08-17T00:34:03,42.805,6.029,0.025,-0.008,-0.029,103.0,102.0,102.0,13.4,1505.2,347.8,-0.8,1.8,2471.376,13.29,0.026,107.7
2023-08-17T00:37:03,42.805,6.029,0.004,-0.007,-0.002,105.0,103.0,101.0,13.3,1505.2,346.2,-0.7,1.8,2471.382,13.29,0.008,150.3
2023-08-17T00:40:03,42.805,6.029,0.001,-0.011,-0.038,103.0,103.0,101.0,13.3,1505.2,324.4,-0.7,1.8,2471.413,13.29,0.011,174.8
2023-08-17T00:43:03,42.805,6.029,-0.029,-0.016,-0.024,104.0,102.0,101.0,13.4,1505.2,323.1,-0.8,1.8,2471.379,13.29,0.033,241.1
2023-08-17T00:46:03,42.805,6.029,-0.003,-0.017,-0.057,104.0,102.0,107.0,13.4,1505.2,324.5,-0.8,1.8,2471.379,13.29,0.017,190.0
2023-08-17T00:49:03,42.805,6.029,-0.033,0.003,-0.052,103.0,102.0,101.0,13.3,1505.2,347.9,-0.8,1.8,2471.448,13.29,0.033,275.2
2023-08-17T00:52:03,42.805,6.029,0.013,-0.024,-0.058,103.0,103.0,102.0,13.4,1505.2,328.1,-0.8,1.8,2471.376,13.29,0.027,151.6
2023-08-17T00:55:03,42.805,6.029,0.011,-0.02,-0.015,103.0,103.0,101.0,13.4,1505.2,321.1,-0.8,1.8,2471.413,13.29,0.022,151.2
2023-08-17T00:58:03,42.805,6.029,-0.016,-0.017,-0.038,103.0,104.0,100.0,13.4,1505.2,340.2,-0.8,1.8,2471.391,13.29,0.023,223.3
2023-08-17T01:04:03,42.805,6.029,0.0,-0.014,-0.029,104.0,103.0,103.0,13.4,1505.2,326.0,-0.8,1.8,2471.445,13.29,0.014,180.0
2023-08-17T01:07:03,42.805,6.029,-0.016,-0.035,-0.065,103.0,103.0,102.0,13.3,1505.2,327.6,-0.8,1.8,2471.451,13.29,0.038,204.6
2023-08-17T01:10:03,42.805,6.029,-0.008,-0.02,-0.052,104.0,103.0,101.0,13.3,1505.2,350.5,-0.8,1.8,2471.468,13.29,0.021,201.8
2023-08-17T01:13:03,42.805,6.029,-0.017,-0.016,-0.017,104.0,103.0,102.0,13.3,1505.2,323.6,-0.7,1.8,2471.415,13.29,0.023,226.7
2023-08-17T01:16:03,42.805,6.029,0.0,0.001,0.0,102.0,103.0,102.0,13.4,1505.2,335.7,-0.8,1.8,2471.443,13.29,0.001,0.0
2023-08-17T01:19:03,42.805,6.029,-0.015,-0.025,-0.045,104.0,102.0,101.0,13.3,1505.2,351.8,-0.8,1.8,2471.432,13.29,0.029,211.0
2023-08-17T01:22:03,42.805,6.029,-0.021,-0.013,-0.048,103.0,102.0,101.0,13.4,1505.2,325.0,-0.8,1.8,2471.433,13.29,0.024,238.2
2023-08-17T01:25:03,42.805,6.029,-0.005,-0.002,-0.013,103.0,103.0,101.0,13.4,1505.2,332.9,-0.8,1.8,2471.391,13.29,0.005,248.2
2023-08-17T01:28:03,42.805,6.029,-0.022,-0.008,-0.036,103.0,101.0,102.0,13.3,1505.2,338.4,-0.8,1.8,2471.383,13.29,0.023,250.0
2023-08-17T01:31:03,42.805,6.029,-0.022,0.013,-0.04,102.0,104.0,101.0,13.3,1505.2,345.9,-0.8,1.8,2471.428,13.29,0.025,300.6
2023-08-17T01:34:03,42.805,6.029,0.008,-0.026,-0.049,103.0,102.0,101.0,13.3,1505.2,337.0,-0.8,1.8,2471.406,13.29,0.027,162.9
2023-08-17T01:37:03,42.805,6.029,-0.03,-0.01,-0.036,104.0,102.0,103.0,13.4,1505.2,336.1,-0.7,1.8,2471.37,13.29,0.031,251.6
2023-08-17T01:40:03,42.805,6.029,-0.012,-0.014,-0.031,103.0,103.0,103.0,13.3,1505.2,330.7,-0.7,1.8,2471.414,13.29,0.018,220.6
2023-08-17T01:43:03,42.805,6.029,-0.025,-0.008,-0.03,103.0,102.0,102.0,13.3,1505.2,338.9,-0.8,1.8,2471.422,13.29,0.026,252.3
2023-08-17T01:46:03,42.805,6.029,-0.032,-0.016,-0.043,103.0,101.0,101.0,13.4,1505.2,341.1,-0.8,1.8,2471.347,13.29,0.035,243.4
2023-08-17T01:49:03,42.805,6.029,0.001,-0.021,-0.033,101.0,103.0,101.0,13.3,1505.2,328.8,-0.8,1.8,2471.369,13.29,0.021,177.3
2023-08-17T01:52:03,42.805,6.029,-0.022,-0.015,-0.021,101.0,102.0,101.0,13.3,1505.2,325.0,-0.8,1.8,2471.387,13.29,0.026,235.7
2023-08-17T01:55:03,42.805,6.029,-0.011,-0.015,-0.008,102.0,103.0,101.0,13.4,1505.2,333.4,-0.7,1.8,2471.352,13.29,0.018,216.3
2023-08-17T01:58:03,42.805,6.029,0.01,-0.02,-0.032,103.0,102.0,101.0,13.4,1505.2,329.3,-0.8,1.8,2471.362,13.29,0.022,153.4
2023-08-17T02:04:03,42.805,6.029,-0.02,0.003,-0.024,101.0,103.0,102.0,13.4,1505.2,335.6,-0.7,1.8,2471.422,13.28,0.02,278.5
2023-08-17T02:07:03,42.805,6.029,-0.016,-0.02,-0.013,104.0,103.0,100.0,13.4,1505.2,320.9,-0.8,1.8,2471.419,13.29,0.025,218.7
2023-08-17T02:10:03,42.805,6.029,-0.035,-0.011,-0.029,103.0,103.0,100.0,13.4,1505.2,332.4,-0.8,1.8,2471.442,13.29,0.036,252.6
2023-08-17T02:13:03,42.805,6.029,-0.003,-0.023,-0.024,103.0,102.0,101.0,13.4,1505.2,322.5,-0.8,1.8,2471.412,13.29,0.023,187.4
2023-08-17T02:16:03,42.805,6.029,-0.017,-0.021,-0.053,102.0,104.0,101.0,13.3,1505.2,335.8,-0.8,1.8,2471.398,13.29,0.027,219.0
2023-08-17T02:19:03,42.805,6.029,-0.023,0.006,0.008,103.0,102.0,102.0,13.4,1505.2,340.0,-0.7,1.8,2471.362,13.29,0.023,284.6
2023-08-17T02:22:03,42.805,6.029,-0.026,-0.007,-0.019,102.0,103.0,102.0,13.3,1505.2,326.5,-0.8,1.8,2471.378,13.29,0.026,254.9
2023-08-17T02:25:03,42.805,6.029,0.011,-0.013,-0.02,104.0,102.0,101.0,13.4,1505.2,328.8,-0.8,1.8,2471.384,13.29,0.017,139.8
2023-08-17T02:28:03,42.805,6.029,-0.016,-0.002,-0.029,101.0,104.0,102.0,13.4,1505.2,327.0,-0.8,1.8,2471.39,13.29,0.016,262.9
2023-08-17T02:31:03,42.805,6.029,-0.013,-0.009,-0.026,105.0,100.0,102.0,13.4,1505.2,342.2,-0.8,1.8,2471.366,13.29,0.015,235.3
2023-08-17T02:34:03,42.805,6.029,-0.013,-0.029,-0.036,103.0,102.0,102.0,13.4,1505.2,338.5,-0.7,1.8,2471.372,13.29,0.031,204.1
2023-08-17T02:37:03,42.805,6.029,-0.018,-0.001,-0.021,103.0,102.0,101.0,13.4,1505.2,349.1,-0.8,1.8,2471.405,13.29,0.018,266.8
2023-08-17T02:40:03,42.805,6.029,-0.008,-0.03,-0.029,105.0,103.0,101.0,13.4,1505.2,348.6,-0.8,1.8,2471.356,13.29,0.031,194.9
2023-08-17T02:43:03,42.805,6.029,-0.019,-0.013,-0.042,103.0,103.0,101.0,13.4,1505.2,343.6,-0.7,1.8,2471.36,13.29,0.023,235.6
2023-08-17T02:46:03,42.805,6.029,-0.02,0.0,-0.015,103.0,103.0,101.0,13.3,1505.2,348.6,-0.8,1.8,2471.384,13.29,0.02,270.0
2023-08-17T02:49:03,42.805,6.029,-0.016,-0.008,-0.041,102.0,102.0,101.0,13.3,1505.2,337.1,-0.8,1.8,2471.344,13.29,0.017,243.4
2023-08-17T02:52:03,42.805,6.029,-0.016,-0.022,-0.035,103.0,102.0,102.0,13.4,1505.2,349.1,-0.8,1.8,2471.367,13.29,0.027,216.0
2023-08-17T02:55:03,42.805,6.029,-0.006,-0.006,-0.039,103.0,102.0,102.0,13.3,1505.2,326.3,-0.8,1.8,2471.351,13.29,0.008,225.0
2023-08-17T02:58:03,42.805,6.029,-0.002,-0.019,-0.018,103.0,102.0,102.0,13.3,1505.2,332.9,-0.7,1.8,2471.365,13.29,0.019,186.0
2023-08-17T03:04:03,42.805,6.029,-0.03,-0.008,-0.009,103.0,102.0,102.0,13.4,1505.2,330.3,-0.8,1.8,2471.394,13.29,0.031,255.1
2023-08-17T03:07:03,42.805,6.029,-0.02,-0.025,-0.042,103.0,103.0,101.0,13.4,1505.2,324.8,-0.8,1.8,2471.443,13.29,0.032,218.7
2023-08-17T03:10:03,42.805,6.029,-0.019,-0.004,-0.005,102.0,103.0,101.0,13.4,1505.2,349.5,-0.8,1.8,2471.376,13.29,0.019,258.1
2023-08-17T03:13:03,42.805,6.029,-0.016,-0.019,-0.032,104.0,102.0,101.0,13.4,1505.2,336.5,-0.7,1.8,2471.399,13.29,0.024,220.1
2023-08-17T03:16:03,42.805,6.029,-0.038,-0.032,-0.052,102.0,102.0,102.0,13.4,1505.2,326.3,-0.8,1.8,2471.376,13.29,0.049,229.9
2023-08-17T03:19:03,42.805,6.029,-0.029,0.016,-0.028,103.0,102.0,102.0,13.4,1505.2,336.6,-0.8,1.8,2471.357,13.29,0.033,298.9
2023-08-17T03:22:03,42.805,6.029,-0.043,0.014,-0.01,102.0,104.0,100.0,13.4,1505.2,344.0,-0.7,1.8,2471.352,13.29,0.045,288.0
2023-08-17T03:25:03,42.805,6.029,-0.033,-0.002,-0.033,103.0,101.0,101.0,13.4,1505.2,352.1,-0.8,1.8,2471.348,13.29,0.033,266.5
2023-08-17T03:28:03,42.805,6.029,-0.035,0.0,-0.014,102.0,104.0,101.0,13.4,1505.2,344.4,-0.7,1.8,2471.404,13.29,0.035,270.0
2023-08-17T03:31:03,42.805,6.029,-0.035,0.0,-0.069,102.0,103.0,102.0,13.4,1505.2,335.5,-0.8,1.8,2471.36,13.29,0.035,270.0
2023-08-17T03:34:03,42.805,6.029,-0.007,-0.019,-0.016,102.0,104.0,102.0,13.4,1505.2,324.0,-0.7,1.8,2471.338,13.29,0.02,200.2
2023-08-17T03:37:03,42.805,6.029,0.0,-0.003,-0.003,103.0,102.0,101.0,13.4,1505.2,327.1,-0.7,1.8,2471.377,13.29,0.003,180.0
2023-08-17T03:40:03,42.805,6.029,-0.016,0.002,-0.03,102.0,103.0,101.0,13.4,1505.2,337.7,-0.8,1.8,2471.398,13.29,0.016,277.1
2023-08-17T03:43:03,42.805,6.029,-0.008,-0.003,-0.031,103.0,103.0,102.0,13.3,1505.2,345.9,-0.8,1.8,2471.403,13.29,0.008,249.4
2023-08-17T03:46:03,42.805,6.029,-0.002,-0.008,0.016,102.0,104.0,102.0,13.4,1505.2,331.8,-0.7,1.8,2471.387,13.29,0.008,194.0
2023-08-17T03:49:03,42.805,6.029,-0.036,-0.002,-0.019,103.0,103.0,100.0,13.3,1505.2,338.9,-0.8,1.8,2471.392,13.29,0.036,266.8
2023-08-17T03:52:03,42.805,6.029,-0.018,-0.031,-0.023,103.0,103.0,102.0,13.4,1505.2,332.1,-0.7,1.8,2471.385,13.29,0.035,210.1
2023-08-17T03:55:03,42.805,6.029,-0.039,0.0,-0.021,102.0,102.0,102.0,13.4,1505.2,349.5,-0.7,1.8,2471.405,13.29,0.039,270.0
2023-08-17T03:58:03,42.805,6.029,-0.025,-0.005,-0.031,103.0,103.0,102.0,13.4,1505.2,338.4,-0.7,1.8,2471.348,13.29,0.025,258.7
2023-08-17T04:04:03,42.805,6.029,-0.009,-0.008,-0.052,103.0,102.0,102.0,13.4,1505.2,347.5,-0.7,1.8,2471.439,13.29,0.012,228.4
2023-08-17T04:07:03,42.805,6.029,-0.016,0.003,-0.016,103.0,102.0,101.0,13.4,1505.2,330.2,-0.8,1.8,2471.437,13.29,0.016,280.6
2023-08-17T04:10:03,42.805,6.029,-0.029,-0.015,-0.027,103.0,103.0,101.0,13.4,1505.2,327.2,-0.8,1.8,2471.451,13.29,0.032,242.6
2023-08-17T04:13:03,42.805,6.029,-0.024,0.0,-0.037,103.0,101.0,101.0,13.4,1505.2,343.4,-0.8,1.8,2471.377,13.29,0.024,270.0
2023-08-17T04:16:03,42.805,6.029,-0.014,-0.028,-0.041,102.0,103.0,101.0,13.4,1505.2,334.9,-0.8,1.8,2471.421,13.29,0.031,206.6
2023-08-17T04:19:03,42.805,6.029,-0.022,0.009,-0.018,103.0,103.0,102.0,13.4,1505.2,351.2,-0.8,1.8,2471.439,13.29,0.023,292.2
2023-08-17T04:22:03,42.805,6.029,-0.048,0.006,-0.026,104.0,103.0,101.0,13.4,1505.2,338.9,-0.7,1.8,2471.412,13.29,0.048,277.1
2023-08-17T04:25:03,42.805,6.029,-0.024,-0.003,-0.031,102.0,103.0,101.0,13.4,1505.2,341.5,-0.8,1.8,2471.42,13.29,0.024,262.9
2023-08-17T04:28:03,42.805,6.029,-0.036,0.001,-0.021,102.0,101.0,102.0,13.4,1505.2,327.1,-0.7,1.8,2471.388,13.29,0.036,271.6
2023-08-17T04:31:03,42.805,6.029,-0.026,-0.009,-0.02,104.0,102.0,102.0,13.4,1505.2,323.5,-0.8,1.8,2471.45,13.29,0.027,250.9
2023-08-17T04:34:03,42.805,6.029,-0.022,0.01,-0.02,104.0,103.0,102.0,13.4,1505.2,325.3,-0.8,1.8,2471.42,13.29,0.024,294.4
2023-08-17T04:37:03,42.805,6.029,-0.044,0.018,-0.022,104.0,102.0,101.0,13.4,1505.2,334.5,-0.7,1.8,2471.416,13.29,0.047,292.2
2023-08-17T04:40:03,42.805,6.029,-0.034,0.01,-0.017,103.0,103.0,100.0,13.4,1505.2,324.1,-0.8,1.8,2471.393,13.29,0.035,286.4
2023-08-17T04:43:03,42.805,6.029,-0.021,-0.002,-0.011,102.0,104.0,102.0,13.3,1505.2,328.5,-0.8,1.8,2471.438,13.29,0.021,264.6
2023-08-17T04:46:03,42.805,6.029,-0.029,-0.002,0.002,102.0,102.0,102.0,13.3,1505.2,353.0,-0.7,1.9,2471.375,13.29,0.029,266.1
2023-08-17T04:49:03,42.805,6.029,-0.01,-0.003,-0.003,103.0,102.0,102.0,13.4,1505.2,329.0,-0.7,1.8,2471.441,13.29,0.01,253.3
2023-08-17T04:52:03,42.805,6.029,-0.033,-0.001,-0.018,103.0,101.0,102.0,13.3,1505.2,332.5,-0.8,1.8,2471.464,13.29,0.033,268.3
2023-08-17T04:55:03,42.805,6.029,-0.027,0.003,0.0,104.0,102.0,101.0,13.4,1505.2,327.4,-0.8,1.8,2471.423,13.29,0.027,276.3
2023-08-17T04:58:03,42.805,6.029,-0.006,-0.02,-0.045,102.0,104.0,102.0,13.3,1505.2,327.2,-0.8,1.8,2471.429,13.29,0.02,196.7
2023-08-17T05:04:03,42.805,6.029,-0.015,0.002,-0.022,103.0,103.0,102.0,13.4,1505.2,328.1,-0.7,1.8,2471.433,13.29,0.015,277.6
2023-08-17T05:07:03,42.805,6.029,-0.043,0.008,-0.024,102.0,103.0,100.0,13.3,1505.2,339.5,-0.7,1.8,2471.482,13.29,0.043,280.5
2023-08-17T05:10:03,42.805,6.029,-0.032,0.023,-0.006,104.0,103.0,100.0,13.3,1505.2,344.0,-0.7,1.8,2471.449,13.29,0.039,305.7
2023-08-17T05:13:03,42.805,6.029,-0.037,0.017,0.018,103.0,103.0,102.0,13.4,1505.2,327.5,-0.8,1.8,2471.48,13.29,0.04,294.7
2023-08-17T05:16:03,42.805,6.029,-0.025,0.006,-0.007,102.0,103.0,103.0,13.3,1505.2,342.2,-0.8,1.8,2471.425,13.29,0.025,283.5
2023-08-17T05:19:03,42.805,6.029,-0.038,0.02,-0.029,104.0,102.0,101.0,13.4,1505.2,339.3,-0.8,1.8,2471.454,13.29,0.042,297.8
2023-08-17T05:22:03,42.805,6.029,-0.036,-0.001,0.012,103.0,101.0,102.0,13.4,1505.2,329.0,-0.7,1.8,2471.45,13.29,0.036,268.4
2023-08-17T05:25:03,42.805,6.029,-0.019,-0.013,-0.034,103.0,103.0,101.0,13.4,1505.2,345.9,-0.8,1.8,2471.447,13.29,0.023,235.6
2023-08-17T05:28:03,42.805,6.029,-0.019,-0.026,-0.043,104.0,101.0,100.0,13.4,1505.2,326.5,-0.8,1.8,2471.435,13.29,0.032,216.2
2023-08-17T05:31:03,42.805,6.029,-0.024,0.011,-0.01,103.0,102.0,102.0,13.3,1505.2,325.5,-0.8,1.8,2471.467,13.29,0.026,294.6
2023-08-17T05:34:03,42.805,6.029,-0.043,0.015,-0.038,103.0,103.0,101.0,13.4,1505.2,331.8,-0.7,1.8,2471.442,13.29,0.045,289.2
2023-08-17T05:37:03,42.805,6.029,-0.028,-0.02,-0.023,103.0,103.0,102.0,13.4,1505.2,341.2,-0.7,1.8,2471.445,13.29,0.034,234.5
2023-08-17T05:40:03,42.805,6.029,0.002,0.004,-0.006,104.0,102.0,101.0,13.4,1505.2,344.5,-0.8,1.8,2471.469,13.29,0.004,26.6
2023-08-17T05:43:03,42.805,6.029,-0.036,0.009,0.001,103.0,103.0,101.0,13.4,1505.2,328.4,-0.7,1.8,2471.45,13.29,0.037,284.0
2023-08-17T05:46:03,42.805,6.029,-0.029,0.008,-0.009,103.0,102.0,102.0,13.4,1505.2,333.4,-0.7,1.8,2471.474,13.29,0.03,285.4
2023-08-17T05:49:03,42.805,6.029,0.003,0.0,-0.01,103.0,101.0,103.0,13.4,1505.2,331.6,-0.7,1.8,2471.447,13.29,0.003,90.0
2023-08-17T05:52:03,42.805,6.029,-0.013,-0.002,-0.027,102.0,103.0,102.0,13.4,1505.2,349.1,-0.8,1.8,2471.484,13.29,0.013,261.3
2023-08-17T05:55:03,42.805,6.029,-0.034,0.004,-0.03,103.0,103.0,101.0,13.4,1505.2,321.6,-0.8,1.8,2471.462,13.29,0.034,276.7
2023-08-17T05:58:03,42.805,6.029,-0.002,0.006,0.011,103.0,102.0,101.0,13.4,1505.2,339.5,-0.8,1.8,2471.447,13.29,0.006,341.6
2023-08-17T06:04:03,42.805,6.029,-0.006,0.01,-0.002,103.0,102.0,101.0,13.4,1505.2,323.5,-0.8,1.8,2471.528,13.29,0.011,329.0
2023-08-17T06:07:03,42.805,6.029,0.0,-0.01,-0.02,102.0,102.0,102.0,13.4,1505.2,321.6,-0.8,1.8,2471.504,13.29,0.01,180.0
2023-08-17T06:10:03,42.805,6.029,-0.017,0.003,-0.019,103.0,104.0,101.0,13.4,1505.2,329.2,-0.8,1.8,2471.513,13.29,0.017,280.0
2023-08-17T06:13:03,42.805,6.029,-0.011,-0.028,-0.029,104.0,102.0,101.0,13.4,1505.2,329.8,-0.7,1.8,2471.473,13.29,0.03,201.4
2023-08-17T06:16:03,42.805,6.029,-0.012,-0.01,-0.058,104.0,102.0,102.0,13.4,1505.2,338.5,-0.7,1.8,2471.484,13.29,0.015,230.2
2023-08-17T06:19:03,42.805,6.029,0.001,-0.011,-0.015,105.0,103.0,101.0,13.4,1505.2,341.9,-0.8,1.8,2471.476,13.29,0.011,174.8
2023-08-17T06:22:03,42.805,6.029,-0.035,0.007,-0.035,103.0,103.0,102.0,13.4,1505.2,330.8,-0.8,1.8,2471.459,13.29,0.035,281.3
2023-08-17T06:25:03,42.805,6.029,-0.027,0.006,0.005,103.0,103.0,101.0,13.4,1505.2,326.3,-0.7,1.8,2471.455,13.29,0.027,282.5
2023-08-17T06:28:03,42.805,6.029,-0.034,-0.009,-0.033,103.0,102.0,101.0,13.4,1505.2,335.0,-0.8,1.8,2471.467,13.29,0.035,255.2
2023-08-17T06:31:03,42.805,6.029,-0.022,0.005,-0.006,102.0,103.0,100.0,13.4,1505.2,339.5,-0.7,1.8,2471.522,13.29,0.022,282.8
2023-08-17T06:34:03,42.805,6.029,-0.01,-0.001,-0.025,103.0,103.0,101.0,13.4,1505.2,332.9,-0.8,1.8,2471.5,13.29,0.01,264.3
2023-08-17T06:37:03,42.805,6.029,-0.019,-0.002,0.005,104.0,102.0,101.0,13.4,1505.2,331.2,-0.8,1.8,2471.48,13.29,0.019,264.0
2023-08-17T06:40:03,42.805,6.029,-0.012,0.019,0.011,102.0,101.0,102.0,13.3,1505.2,329.9,-0.8,1.8,2471.488,13.29,0.022,327.7
2023-08-17T06:43:03,42.805,6.029,-0.009,-0.014,-0.024,104.0,102.0,101.0,13.4,1505.2,319.7,-0.8,1.8,2471.498,13.29,0.016,212.7
2023-08-17T06:46:03,42.805,6.029,-0.028,0.01,-0.031,102.0,102.0,101.0,13.3,1505.2,330.3,-0.8,1.8,2471.453,13.29,0.029,289.6
2023-08-17T06:49:03,42.805,6.029,-0.047,0.048,0.003,101.0,103.0,102.0,13.4,1505.2,330.8,-0.8,1.8,2471.482,13.29,0.067,315.6
2023-08-17T06:52:03,42.805,6.029,0.006,0.004,-0.015,103.0,102.0,102.0,13.3,1505.2,335.5,-0.8,1.8,2471.476,13.29,0.007,56.3
2023-08-17T06:55:03,42.805,6.029,-0.014,0.013,-0.043,103.0,102.0,102.0,13.3,1505.2,337.1,-0.8,1.8,2471.489,13.29,0.019,312.9
2023-08-17T06:58:03,42.805,6.029,-0.011,0.01,0.026,102.0,102.0,101.0,13.3,1505.2,335.4,-0.8,1.8,2471.488,13.29,0.014,312.3
2023-08-17T07:04:03,42.805,6.029,-0.018,-0.002,-0.016,103.0,103.0,101.0,13.4,1505.2,330.7,-0.7,1.8,2471.53,13.29,0.018,263.7
2023-08-17T07:07:03,42.805,6.029,-0.009,0.005,-0.022,103.0,102.0,101.0,13.3,1505.2,344.4,-0.8,1.8,2471.519,13.29,0.01,299.1
2023-08-17T07:10:03,42.805,6.029,-0.01,0.013,-0.02,103.0,102.0,101.0,13.4,1505.2,338.9,-0.8,1.8,2471.522,13.29,0.016,322.4
2023-08-17T07:13:03,42.805,6.029,-0.023,0.021,0.028,103.0,102.0,102.0,13.4,1505.2,340.8,-0.8,1.8,2471.508,13.29,0.031,312.4
2023-08-17T07:16:03,42.805,6.029,-0.017,0.003,-0.025,103.0,103.0,101.0,13.3,1505.2,331.2,-0.8,1.8,2471.497,13.29,0.017,280.0
2023-08-17T07:19:03,42.805,6.029,0.002,0.0,0.016,103.0,103.0,103.0,13.4,1505.2,344.8,-0.8,1.8,2471.508,13.29,0.002,90.0
2023-08-17T07:22:03,42.805,6.029,-0.014,0.008,-0.013,104.0,101.0,101.0,13.3,1505.2,330.9,-0.7,1.8,2471.48,13.29,0.016,299.7
2023-08-17T07:25:03,42.805,6.029,-0.019,0.01,0.001,102.0,103.0,101.0,13.4,1505.2,329.9,-0.8,1.8,2471.5,13.29,0.021,297.8
2023-08-17T07:28:03,42.805,6.029,-0.03,0.028,-0.033,102.0,103.0,101.0,13.4,1505.2,350.5,-0.7,1.8,2471.479,13.29,0.041,313.0
2023-08-17T07:31:03,42.805,6.029,-0.008,0.011,-0.029,102.0,101.0,102.0,13.4,1505.2,338.9,-0.8,1.9,2471.522,13.29,0.013,324.0
2023-08-17T07:34:03,42.805,6.029,0.001,0.002,-0.013,103.0,104.0,101.0,13.4,1505.2,343.3,-0.7,1.8,2471.513,13.29,0.002,26.6
2023-08-17T07:37:03,42.805,6.029,-0.022,0.0,-0.032,103.0,104.0,101.0,13.3,1505.2,334.7,-0.8,1.8,2471.502,13.29,0.022,270.0
2023-08-17T07:40:03,42.805,6.029,-0.006,0.011,-0.028,103.0,103.0,101.0,13.4,1505.2,334.3,-0.7,1.8,2471.479,13.29,0.012,331.4
2023-08-17T07:43:03,42.805,6.029,0.004,0.008,-0.007,104.0,103.0,102.0,13.4,1505.2,348.6,-0.8,1.8,2471.523,13.29,0.008,26.6
2023-08-17T07:46:03,42.805,6.029,-0.014,0.012,-0.025,103.0,102.0,101.0,13.3,1505.2,345.4,-0.7,1.8,2471.469,13.29,0.018,310.6
2023-08-17T07:49:03,42.805,6.029,-0.03,0.008,-0.018,102.0,104.0,99.0,13.3,1505.2,332.9,-0.7,1.8,2471.472,13.29,0.031,284.9
2023-08-17T07:52:03,42.805,6.029,0.0,-0.01,-0.022,103.0,103.0,101.0,13.3,1505.2,348.6,-0.8,1.8,2471.485,13.29,0.01,180.0
2023-08-17T07:55:03,42.805,6.029,-0.013,0.019,0.004,102.0,103.0,101.0,13.4,1505.2,345.6,-0.8,1.8,2471.49,13.29,0.023,325.6
2023-08-17T07:58:03,42.805,6.029,-0.002,-0.006,-0.027,103.0,103.0,101.0,13.3,1505.2,341.5,-0.8,1.8,2471.493,13.29,0.006,198.4
2023-08-17T08:04:03,42.805,6.029,-0.032,0.013,-0.023,103.0,103.0,101.0,13.4,1505.2,352.0,-0.8,1.8,2471.539,13.29,0.034,292.1
2023-08-17T08:07:03,42.805,6.029,0.0,0.014,0.023,103.0,103.0,103.0,13.4,1505.2,331.0,-0.8,1.8,2471.513,13.29,0.014,0.0
2023-08-17T08:10:03,42.805,6.029,0.0,-0.009,-0.005,102.0,102.0,101.0,13.3,1505.2,331.8,-0.8,1.8,2471.566,13.29,0.009,180.0
2023-08-17T08:13:03,42.805,6.029,0.009,0.005,-0.022,103.0,103.0,102.0,13.3,1505.2,330.1,-0.8,1.8,2471.505,13.29,0.01,60.9
2023-08-17T08:16:03,42.805,6.029,-0.017,0.006,0.007,104.0,102.0,101.0,13.4,1505.2,325.3,-0.8,1.8,2471.491,13.29,0.018,289.4
2023-08-17T08:19:03,42.805,6.029,-0.006,0.018,-0.014,103.0,103.0,101.0,13.4,1505.2,332.1,-0.8,1.8,2471.5,13.29,0.018,341.6
2023-08-17T08:22:03,42.805,6.029,-0.003,0.007,-0.016,104.0,102.0,102.0,13.4,1505.2,343.0,-0.8,1.8,2471.499,13.29,0.007,336.8
2023-08-17T08:25:03,42.805,6.029,-0.004,0.015,-0.003,103.0,103.0,102.0,13.4,1505.2,324.7,-0.8,1.8,2471.5,13.29,0.015,345.1
2023-08-17T08:28:03,42.805,6.029,-0.002,-0.014,-0.034,103.0,105.0,101.0,13.4,1505.2,333.4,-0.7,1.8,2471.508,13.29,0.014,188.1
2023-08-17T08:31:03,42.805,6.029,-0.004,-0.014,-0.027,102.0,103.0,102.0,13.3,1505.2,348.6,-0.8,1.8,2471.47,13.29,0.014,195.9
2023-08-17T08:34:03,42.805,6.029,0.0,0.016,0.011,103.0,102.0,102.0,13.4,1505.2,332.9,-0.8,1.8,2471.466,13.29,0.016,0.0
2023-08-17T08:37:03,42.805,6.029,-0.009,0.029,0.012,103.0,101.0,103.0,13.4,1505.2,331.8,-0.8,1.8,2471.473,13.29,0.03,342.8
2023-08-17T08:40:03,42.805,6.029,-0.015,0.03,0.03,102.0,105.0,101.0,13.4,1505.2,346.5,-0.8,1.8,2471.493,13.29,0.033,333.4
2023-08-17T08:43:03,42.805,6.029,-0.017,-0.026,-0.031,104.0,103.0,102.0,13.4,1505.2,351.8,-0.8,1.8,2471.476,13.29,0.031,213.2
2023-08-17T08:46:03,42.805,6.029,-0.023,0.002,-0.014,103.0,103.0,102.0,13.4,1505.2,323.6,-0.8,1.8,2471.462,13.29,0.023,275.0
2023-08-17T08:49:03,42.805,6.029,-0.001,-0.023,-0.013,101.0,103.0,102.0,13.3,1505.2,338.6,-0.8,1.8,2471.421,13.29,0.023,182.5
2023-08-17T08:52:03,42.805,6.029,-0.003,-0.001,-0.018,103.0,103.0,101.0,13.3,1505.2,351.5,-0.8,1.8,2471.488,13.29,0.003,251.6
2023-08-17T08:55:03,42.805,6.029,-0.004,0.0,-0.014,103.0,102.0,102.0,13.4,1505.2,345.3,-0.8,1.9,2471.487,13.29,0.004,270.0
2023-08-17T08:58:03,42.805,6.029,0.009,0.007,0.002,102.0,103.0,102.0,13.4,1505.2,332.5,-0.8,1.8,2471.479,13.29,0.011,52.1
2023-08-17T09:04:03,42.805,6.029,-0.002,0.0,-0.021,102.0,103.0,101.0,13.3,1505.2,328.8,-0.8,1.8,2471.476,13.29,0.002,270.0
2023-08-17T09:07:03,42.805,6.029,-0.014,0.007,-0.025,102.0,104.0,101.0,13.4,1505.2,327.5,-0.8,1.8,2471.503,13.29,0.015,296.6
2023-08-17T09:10:03,42.805,6.029,-0.012,0.026,0.0,103.0,102.0,102.0,13.3,1505.2,341.5,-0.8,1.8,2471.498,13.29,0.028,335.2
2023-08-17T09:13:03,42.805,6.029,-0.027,-0.006,-0.025,102.0,102.0,102.0,13.4,1505.2,331.1,-0.8,1.8,2471.496,13.29,0.027,257.5
2023-08-17T09:16:03,42.805,6.029,-0.015,0.011,0.019,103.0,102.0,102.0,13.4,1505.2,319.8,-0.7,1.8,2471.497,13.29,0.018,306.3
2023-08-17T09:19:03,42.805,6.029,-0.02,0.003,0.0,103.0,103.0,101.0,13.4,1505.2,337.9,-0.7,1.8,2471.504,13.29,0.02,278.5
2023-08-17T09:22:03,42.805,6.029,-0.007,-0.011,-0.013,103.0,102.0,101.0,13.3,1505.2,347.0,-0.7,1.8,2471.493,13.29,0.013,212.5
2023-08-17T09:25:03,42.805,6.029,0.01,0.009,-0.024,103.0,103.0,101.0,13.3,1505.2,335.2,-0.8,1.8,2471.45,13.29,0.013,48.0
2023-08-17T09:28:03,42.805,6.029,-0.007,-0.006,-0.007,104.0,103.0,101.0,13.4,1505.2,324.2,-0.8,1.8,2471.467,13.29,0.009,229.4
2023-08-17T09:31:03,42.805,6.029,-0.011,0.007,-0.002,103.0,103.0,102.0,13.4,1505.2,344.4,-0.7,1.8,2471.475,13.29,0.013,302.5
2023-08-17T09:34:03,42.805,6.029,-0.013,0.001,-0.043,103.0,103.0,101.0,13.4,1505.2,344.8,-0.8,1.8,2471.459,13.29,0.013,274.4
2023-08-17T09:37:03,42.805,6.029,-0.034,0.023,-0.027,103.0,102.0,101.0,13.3,1505.2,340.0,-0.8,1.8,2471.47,13.29,0.041,304.1
2023-08-17T09:40:03,42.805,6.029,0.001,0.0,-0.014,104.0,103.0,100.0,13.3,1505.2,325.1,-0.8,1.8,2471.447,13.29,0.001,90.0
2023-08-17T09:43:03,42.805,6.029,-0.02,0.017,-0.031,104.0,102.0,100.0,13.3,1505.2,340.4,-0.8,1.8,2471.442,13.29,0.026,310.4
2023-08-17T09:46:03,42.805,6.029,-0.014,0.002,-0.016,103.0,103.0,102.0,13.3,1505.2,339.3,-0.8,1.9,2471.453,13.29,0.014,278.1
2023-08-17T09:49:03,42.805,6.029,0.013,-0.007,0.0,103.0,103.0,101.0,13.4,1505.2,327.2,-0.8,1.8,2471.396,13.29,0.014,118.3
2023-08-17T09:52:03,42.805,6.029,0.007,0.0,-0.009,102.0,103.0,101.0,13.4,1505.2,347.1,-0.8,1.8,2471.42,13.29,0.007,90.0
2023-08-17T09:55:03,42.805,6.029,0.003,-0.027,-0.062,103.0,103.0,101.0,13.4,1505.2,336.3,-0.8,1.8,2471.443,13.29,0.027,173.7